[TLELIST] Archives

 

[TLELIST] Current TLEs

December 8th 2024 PDT

HST 1 20580U 90037B 24342.78200991 .00011297 00000-0 47713-3 0 9990 2 20580 28.4682 258.9807 0002103 137.6933 222.3823 15.21634196703464 ISS (ZARYA) 1 25544U 98067A 24343.36277656 .00018412 00000-0 32552-3 0 9994 2 25544 51.6385 172.4609 0006853 316.0192 105.3050 15.50356018485569 CXO 1 25867U 99040B 24345.03608982 .00000536 00000-0 00000-0 0 9998 2 25867 45.1631 140.2245 8694674 304.9292 0.2224 0.37809066 15220 ...Continue Reading

[TLELIST] Current TLEs

December 7th 2024 PDT

HST 1 20580U 90037B 24341.86378054 .00010968 00000-0 46330-3 0 9992 2 20580 28.4684 265.1697 0002137 128.0372 232.0415 15.21612929703321 ISS (ZARYA) 1 25544U 98067A 24341.95936464 .00018758 00000-0 33207-3 0 9997 2 25544 51.6383 179.4169 0006947 310.0949 193.3515 15.50304543485348 CXO 1 25867U 99040B 24342.39125787 .00000678 00000-0 00000-0 0 9998 2 25867 45.0848 140.4320 8695375 304.8223 0.1385 0.37803356 15219 ...Continue Reading

[TLELIST] [TLELIST] Current TLEs

December 7th 2024 PDT

HST 1 20580U 90037B 24341.86378054 .00010968 00000-0 46330-3 0 9992 2 20580 28.4684 265.1697 0002137 128.0372 232.0415 15.21612929703321 ISS (ZARYA) 1 25544U 98067A 24341.95936464 .00018758 00000-0 33207-3 0 9997 2 25544 51.6383 179.4169 0006947 310.0949 193.3515 15.50304543485348 CXO 1 25867U 99040B 24342.39125787 .00000678 00000-0 00000-0 0 9998 2 25867 45.0848 140.4320 8695375 304.8223 0.1385 0.37803356 15219 ...Continue Reading

[TLELIST] Current TLEs

December 7th 2024 PDT

HST 1 20580U 90037B 24341.86378054 .00010968 00000-0 46330-3 0 9992 2 20580 28.4684 265.1697 0002137 128.0372 232.0415 15.21612929703321 ISS (ZARYA) 1 25544U 98067A 24341.95936464 .00018758 00000-0 33207-3 0 9997 2 25544 51.6383 179.4169 0006947 310.0949 193.3515 15.50304543485348 CXO 1 25867U 99040B 24342.39125787 .00000678 00000-0 00000-0 0 9998 2 25867 45.0848 140.4320 8695375 304.8223 0.1385 0.37803356 15219 ...Continue Reading

[TLELIST] Current TLEs

December 6th 2024 PDT

HST 1 20580U 90037B 24341.14230580 .00011022 00000-0 46586-3 0 9999 2 20580 28.4687 270.0321 0002166 120.1845 239.8963 15.21595758703472 ISS (ZARYA) 1 25544U 98067A 24340.99323416 .00018216 00000-0 32316-3 0 9996 2 25544 51.6388 184.2057 0007028 306.7642 201.1123 15.50265976485198 CXO 1 25867U 99040B 24342.39125787 .00000678 00000-0 00000-0 0 9998 2 25867 45.0848 140.4320 8695375 304.8223 0.1385 0.37803356 15219 ...Continue Reading

[TLELIST] Current TLEs

December 6th 2024 PDT

HST 1 20580U 90037B 24341.14230580 .00011022 00000-0 46586-3 0 9999 2 20580 28.4687 270.0321 0002166 120.1845 239.8963 15.21595758703472 ISS (ZARYA) 1 25544U 98067A 24340.99323416 .00018216 00000-0 32316-3 0 9996 2 25544 51.6388 184.2057 0007028 306.7642 201.1123 15.50265976485198 CXO 1 25867U 99040B 24342.39125787 .00000678 00000-0 00000-0 0 9998 2 25867 45.0848 140.4320 8695375 304.8223 0.1385 0.37803356 15219 ...Continue Reading

[TLELIST] Current TLEs

December 5th 2024 PDT

HST 1 20580U 90037B 24339.50256006 .00012481 00000-0 52920-3 0 9996 2 20580 28.4694 281.0825 0002237 103.3937 256.6906 15.21555689702961 ISS (ZARYA) 1 25544U 98067A 24339.96087914 .00017466 00000-0 31067-3 0 9999 2 25544 51.6384 189.3216 0006992 302.6085 199.9978 15.50224944485037 CXO 1 25867U 99040B 24342.39125787 .00000678 00000-0 00000-0 0 9998 2 25867 45.0848 140.4320 8695375 304.8223 0.1385 0.37803356 15219 ...Continue Reading

[TLELIST] Current TLEs

December 4th 2024 PDT

HST 1 20580U 90037B 24339.50256006 .00012481 00000-0 52920-3 0 9996 2 20580 28.4694 281.0825 0002237 103.3937 256.6906 15.21555689703221 ISS (ZARYA) 1 25544U 98067A 24339.55581009 .00017410 00000-0 30986-3 0 9996 2 25544 51.6389 191.3284 0006976 301.1757 99.3335 15.50210297484970 CXO 1 25867U 99040B 24342.39125787 .00000678 00000-0 00000+0 0 9997 2 25867 45.0848 140.4320 8695375 304.8223 0.1385 0.37803356 26378 ...Continue Reading

[TLELIST] Current TLEs

December 3rd 2024 PDT

HST 1 20580U 90037B 24338.19073006 .00012482 00000-0 52979-3 0 9992 2 20580 28.4699 289.9224 0002270 89.0690 271.0164 15.21521152703022 ISS (ZARYA) 1 25544U 98067A 24338.73132801 .00017715 00000-0 31546-3 0 9998 2 25544 51.6389 195.4150 0006889 298.0521 178.2290 15.50182185484840 CXO 1 25867U 99040B 24337.10248963 .00000640 00000-0 00000+0 0 9991 2 25867 44.9628 140.7483 8701992 304.6886 0.0128 0.37806732 26354 ...Continue Reading

[TLELIST] Current TLEs

December 2nd 2024 PDT

HST 1 20580U 90037B 24337.27243123 .00013909 00000-0 59167-3 0 9990 2 20580 28.4700 296.1103 0002254 79.5547 280.5301 15.21498142702623 ISS (ZARYA) 1 25544U 98067A 24337.69815449 .00018847 00000-0 33543-3 0 9994 2 25544 51.6392 200.5348 0006936 293.3311 173.4353 15.50149230484682 CXO 1 25867U 99040B 24337.10248963 .00000640 00000-0 00000+0 0 9991 2 25867 44.9628 140.7483 8701992 304.6886 0.0128 0.37806732 26354 ...Continue Reading
  • This mailing list is a public mailing list - anyone may join or leave, at any time.
  • This mailing list is announce-only.

International Space Station (ISS) / Hubble Space Telescope (HST) / Chandra X-Ray Observatory Orbital Data via EMAIL

Privacy Policy:

Private list